Songa Opal — V7RO5 — position and weather

sailwx.info

Track history (hours):
 
Tides and Currents Weather Stations Pressure Air Temp Water Temp Dewpoint Dewpoint Depression Visibility Wind Speed Wind Dir Waves Ship Positions

Songa Opal

Last reported at 2016-Sep-30 17:32 UTC. Time now 2016-Dec-11 06:12 UTC.
Position N 38°50' W 075°05'.
Warning: this ship's position is months out of date.

Length 148 m; draft 7.7 m.

Type: Ship. MMSI: 538003550.

Date/timePositionNaut miles runAvg speedWind from/ knotsBaromVisibWave heightAir tempDewpointWater temp
2016-Sep-30 17:32N 38°50' W 075°05'1414.3
2016-Sep-30 16:33N 39°04' W 075°10'2412.2
2016-Sep-30 14:33N 39°23' W 075°29'1010.2
2016-Sep-30 13:33N 39°33' W 075°32'24 8.0
2016-Sep-30 10:31N 39°52' W 075°13'0 0.0
2016-Sep-30 08:31N 39°52' W 075°13'0 0.0
2016-Sep-30 06:25N 39°52' W 075°13'3 0.9
2016-Sep-30 03:32N 39°51' W 075°16'0 0.0
2016-Sep-30 02:32N 39°51' W 075°16'0 0.0
2016-Sep-29 23:32N 39°51' W 075°16'0 0.0
2016-Sep-29 21:32N 39°51' W 075°16'0 0.0
2016-Sep-29 20:32N 39°51' W 075°16'0 0.0
2016-Sep-29 19:32N 39°51' W 075°16'0 0.0
2016-Sep-29 16:28N 39°51' W 075°16'0 0.0
2016-Sep-29 15:20N 39°51' W 075°16'0 0.0
2016-Sep-29 14:32N 39°51' W 075°16'0 0.0
2016-Sep-29 13:33N 39°51' W 075°16'0 0.0
2016-Sep-29 08:32N 39°51' W 075°16'0 0.0
2016-Sep-29 07:32N 39°51' W 075°16'0 0.0
2016-Sep-29 00:29N 39°51' W 075°16'0 0.0
2016-Sep-28 21:32N 39°51' W 075°16'0 0.0
2016-Sep-28 19:32N 39°51' W 075°16'0 0.0
2016-Sep-28 16:32N 39°51' W 075°16'0 0.0
2016-Sep-28 15:32N 39°51' W 075°16'0 0.0
2016-Sep-28 12:32N 39°51' W 075°16'0 0.0
2016-Sep-28 08:32N 39°51' W 075°16'2 0.5
2016-Sep-28 03:33N 39°52' W 075°13'0 0.0
2016-Sep-28 02:33N 39°52' W 075°13'0 0.0
2016-Sep-28 01:33N 39°52' W 075°13'0 0.0
2016-Sep-27 23:33N 39°52' W 075°13'0 0.0
2016-Sep-27 19:33N 39°52' W 075°13'0 0.0
2016-Sep-27 14:33N 39°52' W 075°13'0 0.0
2016-Sep-27 13:33N 39°52' W 075°13'0 0.0
2016-Sep-27 10:33N 39°52' W 075°13'0 0.0
2016-Sep-27 00:33N 39°52' W 075°13'0 0.0
2016-Sep-26 20:33N 39°52' W 075°13'0 0.0
2016-Sep-26 19:33N 39°52' W 075°13'0 0.0
2016-Sep-26 15:24N 39°52' W 075°13'0 0.0
2016-Sep-26 13:27N 39°52' W 075°13'0 0.0
2016-Sep-26 11:33N 39°52' W 075°13'0 0.1
2016-Sep-26 08:33N 39°52' W 075°13'0 0.0
2016-Sep-26 02:33N 39°52' W 075°13'0 0.0
2016-Sep-26 01:32N 39°52' W 075°13'0 0.0
2016-Sep-26 00:32N 39°52' W 075°13'0 0.0
2016-Sep-25 21:33N 39°52' W 075°13'0 0.0
2016-Sep-25 17:30N 39°52' W 075°13'0 0.0
2016-Sep-25 16:33N 39°52' W 075°13'0 0.0
2016-Sep-25 15:33N 39°52' W 075°13'0 0.1
2016-Sep-25 14:33N 39°52' W 075°13'0 0.0
2016-Sep-25 12:33N 39°52' W 075°13'0 0.0
2016-Sep-25 11:33N 39°52' W 075°13'0 0.0
2016-Sep-25 10:33N 39°52' W 075°13'0 0.1
2016-Sep-25 09:33N 39°52' W 075°13'0 0.1
2016-Sep-25 07:33N 39°52' W 075°13'0 0.0
2016-Sep-25 04:33N 39°52' W 075°13'0 0.0
2016-Sep-25 00:33N 39°52' W 075°13'0 0.0
2016-Sep-24 22:33N 39°52' W 075°13'0 0.0
2016-Sep-24 21:34N 39°52' W 075°13'15 7.7
2016-Sep-24 19:33N 39°44' W 075°30'1212.1
2016-Sep-24 18:33N 39°32' W 075°33'1212.0
2016-Sep-24 17:33N 39°21' W 075°26'1312.8
2016-Sep-24 16:33N 39°11' W 075°16'119 9.2
2016-Sep-24 03:33N 39°07' W 072°42'1713.7
2016-Sep-24 02:20N 39°07' W 072°21'1013.3
2016-Sep-24 01:33N 39°07' W 072°07'26 1.6
2016-Sep-23 09:25N 39°31' W 072°22'3712.8
2016-Sep-23 06:33N 39°51' W 073°02'2512.6
2016-Sep-23 04:33N 40°07' W 073°27'1212.3
2016-Sep-23 03:33N 40°16' W 073°38'1110.9
2016-Sep-23 02:33N 40°26' W 073°42'4 4.2
2016-Sep-23 01:32N 40°30' W 073°40'0 0.0
2016-Sep-23 00:32N 40°30' W 073°40'0 0.1
2016-Sep-22 23:32N 40°30' W 073°39'0 0.0
2016-Sep-22 20:29N 40°30' W 073°39'0 0.0
2016-Sep-22 12:32N 40°30' W 073°40'0 0.0
2016-Sep-22 04:29N 40°30' W 073°40'0 0.0
2016-Sep-22 03:29N 40°30' W 073°40'0 0.0
2016-Sep-21 23:32N 40°30' W 073°40'0 0.1
2016-Sep-21 22:29N 40°30' W 073°39'0 0.0
2016-Sep-21 19:32N 40°30' W 073°39'0 0.0
2016-Sep-21 16:20N 40°30' W 073°40'0 0.0
2016-Sep-21 09:32N 40°30' W 073°39'0 0.0
2016-Sep-21 08:32N 40°30' W 073°39'0 0.0
2016-Sep-21 03:32N 40°30' W 073°40'0 0.0
2016-Sep-21 02:32N 40°30' W 073°40'  
Track history (hours):
 
Tides and Currents Weather Stations Pressure Air Temp Water Temp Dewpoint Dewpoint Depression Visibility Wind Speed Wind Dir Waves Ship Positions

Songa Opal

Last reported at 2016-Sep-30 17:32 UTC. Time now 2016-Dec-11 06:12 UTC.
Position N 38°50' W 075°05'.
Warning: this ship's position is months out of date.

Length 148 m; draft 7.7 m.

Type: Ship. MMSI: 538003550.

Date/timePositionNaut miles runAvg speedWind from/ knotsBaromVisibWave heightAir tempDewpointWater temp
2016-Sep-30 17:32N 38°50' W 075°05'1414.3
2016-Sep-30 16:33N 39°04' W 075°10'2412.2
2016-Sep-30 14:33N 39°23' W 075°29'1010.2
2016-Sep-30 13:33N 39°33' W 075°32'24 8.0
2016-Sep-30 10:31N 39°52' W 075°13'0 0.0
2016-Sep-30 08:31N 39°52' W 075°13'0 0.0
2016-Sep-30 06:25N 39°52' W 075°13'3 0.9
2016-Sep-30 03:32N 39°51' W 075°16'0 0.0
2016-Sep-30 02:32N 39°51' W 075°16'0 0.0
2016-Sep-29 23:32N 39°51' W 075°16'0 0.0
2016-Sep-29 21:32N 39°51' W 075°16'0 0.0
2016-Sep-29 20:32N 39°51' W 075°16'0 0.0
2016-Sep-29 19:32N 39°51' W 075°16'0 0.0
2016-Sep-29 16:28N 39°51' W 075°16'0 0.0
2016-Sep-29 15:20N 39°51' W 075°16'0 0.0
2016-Sep-29 14:32N 39°51' W 075°16'0 0.0
2016-Sep-29 13:33N 39°51' W 075°16'0 0.0
2016-Sep-29 08:32N 39°51' W 075°16'0 0.0
2016-Sep-29 07:32N 39°51' W 075°16'0 0.0
2016-Sep-29 00:29N 39°51' W 075°16'0 0.0
2016-Sep-28 21:32N 39°51' W 075°16'0 0.0
2016-Sep-28 19:32N 39°51' W 075°16'0 0.0
2016-Sep-28 16:32N 39°51' W 075°16'0 0.0
2016-Sep-28 15:32N 39°51' W 075°16'0 0.0
2016-Sep-28 12:32N 39°51' W 075°16'0 0.0
2016-Sep-28 08:32N 39°51' W 075°16'2 0.5
2016-Sep-28 03:33N 39°52' W 075°13'0 0.0
2016-Sep-28 02:33N 39°52' W 075°13'0 0.0
2016-Sep-28 01:33N 39°52' W 075°13'0 0.0
2016-Sep-27 23:33N 39°52' W 075°13'0 0.0
2016-Sep-27 19:33N 39°52' W 075°13'0 0.0
2016-Sep-27 14:33N 39°52' W 075°13'0 0.0
2016-Sep-27 13:33N 39°52' W 075°13'0 0.0
2016-Sep-27 10:33N 39°52' W 075°13'0 0.0
2016-Sep-27 00:33N 39°52' W 075°13'0 0.0
2016-Sep-26 20:33N 39°52' W 075°13'0 0.0
2016-Sep-26 19:33N 39°52' W 075°13'0 0.0
2016-Sep-26 15:24N 39°52' W 075°13'0 0.0
2016-Sep-26 13:27N 39°52' W 075°13'0 0.0
2016-Sep-26 11:33N 39°52' W 075°13'0 0.1
2016-Sep-26 08:33N 39°52' W 075°13'0 0.0
2016-Sep-26 02:33N 39°52' W 075°13'0 0.0
2016-Sep-26 01:32N 39°52' W 075°13'0 0.0
2016-Sep-26 00:32N 39°52' W 075°13'0 0.0
2016-Sep-25 21:33N 39°52' W 075°13'0 0.0
2016-Sep-25 17:30N 39°52' W 075°13'0 0.0
2016-Sep-25 16:33N 39°52' W 075°13'0 0.0
2016-Sep-25 15:33N 39°52' W 075°13'0 0.1
2016-Sep-25 14:33N 39°52' W 075°13'0 0.0
2016-Sep-25 12:33N 39°52' W 075°13'0 0.0
2016-Sep-25 11:33N 39°52' W 075°13'0 0.0
2016-Sep-25 10:33N 39°52' W 075°13'0 0.1
2016-Sep-25 09:33N 39°52' W 075°13'0 0.1
2016-Sep-25 07:33N 39°52' W 075°13'0 0.0
2016-Sep-25 04:33N 39°52' W 075°13'0 0.0
2016-Sep-25 00:33N 39°52' W 075°13'0 0.0
2016-Sep-24 22:33N 39°52' W 075°13'0 0.0
2016-Sep-24 21:34N 39°52' W 075°13'15 7.7
2016-Sep-24 19:33N 39°44' W 075°30'1212.1
2016-Sep-24 18:33N 39°32' W 075°33'1212.0
2016-Sep-24 17:33N 39°21' W 075°26'1312.8
2016-Sep-24 16:33N 39°11' W 075°16'119 9.2
2016-Sep-24 03:33N 39°07' W 072°42'1713.7
2016-Sep-24 02:20N 39°07' W 072°21'1013.3
2016-Sep-24 01:33N 39°07' W 072°07'26 1.6
2016-Sep-23 09:25N 39°31' W 072°22'3712.8
2016-Sep-23 06:33N 39°51' W 073°02'2512.6
2016-Sep-23 04:33N 40°07' W 073°27'1212.3
2016-Sep-23 03:33N 40°16' W 073°38'1110.9
2016-Sep-23 02:33N 40°26' W 073°42'4 4.2
2016-Sep-23 01:32N 40°30' W 073°40'0 0.0
2016-Sep-23 00:32N 40°30' W 073°40'0 0.1
2016-Sep-22 23:32N 40°30' W 073°39'0 0.0
2016-Sep-22 20:29N 40°30' W 073°39'0 0.0
2016-Sep-22 12:32N 40°30' W 073°40'0 0.0
2016-Sep-22 04:29N 40°30' W 073°40'0 0.0
2016-Sep-22 03:29N 40°30' W 073°40'0 0.0
2016-Sep-21 23:32N 40°30' W 073°40'0 0.1
2016-Sep-21 22:29N 40°30' W 073°39'0 0.0
2016-Sep-21 19:32N 40°30' W 073°39'0 0.0
2016-Sep-21 16:20N 40°30' W 073°40'0 0.0
2016-Sep-21 09:32N 40°30' W 073°39'0 0.0
2016-Sep-21 08:32N 40°30' W 073°39'0 0.0
2016-Sep-21 03:32N 40°30' W 073°40'0 0.0
2016-Sep-21 02:32N 40°30' W 073°40'  

Dump ship's entire track history